TimeCST,TemperatureF,Dew PointF,Humidity,Sea Level PressureIn,VisibilityMPH,Wind Direction,Wind SpeedMPH,Gust SpeedMPH,PrecipitationIn,Events,Conditions,WindDirDegrees,DateUTC
12:53 AM,26.1,24.1,92,30.03,5.0,Calm,Calm,-,N/A,,Clear,0,2012-11-19 06:53:00
1:53 AM,27.0,25.0,92,30.03,5.0,NW,8.1,-,N/A,,Clear,310,2012-11-19 07:53:00
2:53 AM,25.0,23.0,92,30.05,7.0,WNW,6.9,-,N/A,,Clear,300,2012-11-19 08:53:00
3:53 AM,25.0,23.0,92,30.07,7.0,NW,6.9,-,N/A,,Clear,310,2012-11-19 09:53:00
4:53 AM,28.0,26.1,92,30.07,7.0,NW,5.8,-,N/A,,Clear,310,2012-11-19 10:53:00
5:53 AM,27.0,25.0,92,30.12,9.0,NW,6.9,-,N/A,,Clear,310,2012-11-19 11:53:00
6:53 AM,27.0,24.1,89,30.14,10.0,NW,3.5,-,N/A,,Clear,310,2012-11-19 12:53:00
7:53 AM,28.0,25.0,88,30.17,10.0,NNW,4.6,-,N/A,,Clear,330,2012-11-19 13:53:00
8:53 AM,33.1,28.9,85,30.21,10.0,NW,4.6,-,N/A,,Clear,310,2012-11-19 14:53:00
9:53 AM,44.1,33.1,65,30.20,10.0,WNW,10.4,-,N/A,,Clear,300,2012-11-19 15:53:00
10:53 AM,50.0,32.0,50,30.20,10.0,West,6.9,-,N/A,,Clear,270,2012-11-19 16:53:00
11:53 AM,59.0,30.9,35,30.18,10.0,NW,17.3,-,N/A,,Clear,310,2012-11-19 17:53:00
12:53 PM,62.1,30.9,31,30.17,10.0,NW,13.8,-,N/A,,Clear,310,2012-11-19 18:53:00
1:53 PM,64.9,30.0,27,30.15,10.0,NW,11.5,20.7,N/A,,Clear,320,2012-11-19 19:53:00
2:53 PM,64.0,28.9,27,30.14,10.0,WNW,12.7,-,N/A,,Clear,300,2012-11-19 20:53:00
3:53 PM,62.1,28.9,29,30.16,10.0,West,6.9,-,N/A,,Clear,280,2012-11-19 21:53:00
4:53 PM,59.0,28.0,31,30.16,10.0,NNW,5.8,-,N/A,,Clear,340,2012-11-19 22:53:00
5:53 PM,48.0,27.0,44,30.19,10.0,North,4.6,-,N/A,,Clear,10,2012-11-19 23:53:00
6:53 PM,44.1,26.1,49,30.22,10.0,Calm,Calm,-,N/A,,Clear,0,2012-11-20 00:53:00
7:53 PM,34.0,24.1,67,30.25,10.0,Calm,Calm,-,N/A,,Clear,0,2012-11-20 01:53:00
8:53 PM,35.1,24.1,64,30.25,10.0,Calm,Calm,-,N/A,,Clear,0,2012-11-20 02:53:00
9:53 PM,30.9,23.0,72,30.24,10.0,Calm,Calm,-,N/A,,Clear,0,2012-11-20 03:53:00
10:53 PM,28.0,21.9,78,30.23,10.0,Calm,Calm,-,N/A,,Clear,0,2012-11-20 04:53:00
11:53 PM,27.0,21.9,81,30.22,10.0,NW,3.5,-,N/A,,Clear,320,2012-11-20 05:53:00